Flag for China Weather past 2 weeks in Guangzhou, China

Now
75 °F

Fog.


Feels Like: 75 °F
Forecast: 72 / 84 °F
Wind: 3 mph from East

Location: Canton Airport


UV Index: 7 (High)

Visibility: 2 mi


Pressure: 29.83 "Hg

Humidity: 83%

Dew point: 70 °F

Location of GuangzhouLocation

Historic Weather in Guangzhou

°F

Guangzhou temperature yesterday

Maximum temperature yesterday: 73 °F (at 3:00 PM)
Minimum temperature yesterday: 68 °F (at 4:00 AM)
Average temperature yesterday: 71 °F

Past Weeks' High & Low Weather Summary

 TemperatureHumidityPressure
High91 °F (Apr 13, 2:00 PM)100% (Apr 23, 12:30 AM)30.04 "Hg (Apr 23, 12:30 AM)
Low68 °F (Apr 23, 4:00 AM)49% (Apr 13, 4:00 PM)29.77 "Hg (Apr 20, 5:00 PM)
Average77 °F78%29.88 "Hg
* Reported Apr 9 8:00 PM — Apr 24 8:00 PM, Guangzhou, Weather by CustomWeather, © 2014

Note: Actual official high and low records may vary slightly from our data, if they occured in-between our weather recording intervals... More about our weather records

Advertising

Historic Weather Conditions — Data for Previous 24 hours

 ConditionsComfort  
Time TempWeatherWind HumidityBarometerVisibility
8:00 PM
Apr 24
75 °FFog.1 mph89%29.83 "Hg2 mi
7:30 PM75 °FFog.3 mph89%29.80 "Hg2 mi
7:00 PM77 °FFog.3 mph83%29.80 "Hg2 mi
6:30 PM77 °FFog.6 mph83%29.80 "Hg2 mi
6:00 PM77 °FFog.3 mph83%29.77 "Hg2 mi
5:30 PM77 °FFog.6 mph83%29.77 "Hg2 mi
5:00 PM77 °FFog.1 mph83%29.77 "Hg2 mi
4:30 PM77 °FFog.1 mph83%29.77 "Hg2 mi
4:00 PM77 °FFog.1 mph83%29.77 "Hg2 mi
3:30 PM77 °FFog.1 mph83%29.80 "Hg2 mi
3:00 PM77 °FFog.1 mph83%29.80 "Hg2 mi
2:30 PM75 °FFog.1 mph89%29.83 "Hg2 mi
2:00 PM77 °FFog.3 mph83%29.83 "Hg2 mi
1:30 PM75 °FFog.3 mph83%29.83 "Hg2 mi
1:00 PM75 °FFog.3 mph89%29.83 "Hg2 mi
12:30 PM75 °FFog.No wind83%29.86 "Hg2 mi
12:00 PM75 °FFog.1 mph89%29.86 "Hg2 mi
11:30 AM75 °FFog.1 mph89%29.86 "Hg2 mi
11:00 AM75 °FFog.3 mph83%29.89 "Hg2 mi
10:30 AM75 °FFog.3 mph83%29.86 "Hg2 mi
10:00 AM75 °FFog.3 mph83%29.89 "Hg2 mi
9:30 AM75 °FFog.6 mph83%29.86 "Hg2 mi
9:00 AM75 °FFog.1 mph83%29.86 "Hg2 mi
8:30 AM73 °FFog.1 mph89%29.86 "Hg2 mi
8:00 AM73 °FFog.3 mph89%29.86 "Hg2 mi
7:30 AM73 °FFog.1 mph89%29.86 "Hg2 mi
7:00 AM72 °FFog.3 mph94%29.83 "Hg2 mi
6:30 AM72 °FFog.3 mph88%29.83 "Hg2 mi
6:00 AM72 °FFog.6 mph88%29.83 "Hg2 mi
5:30 AM72 °FFog.6 mph88%29.83 "Hg2 mi
5:00 AM72 °FFog.6 mph88%29.83 "Hg2 mi
4:30 AM72 °FFog.6 mph88%29.83 "Hg2 mi
4:00 AM72 °FFog.3 mph88%29.83 "Hg2 mi
3:30 AM72 °FFog.3 mph88%29.83 "Hg2 mi
3:00 AM72 °FFog.3 mph94%29.83 "Hg2 mi
2:30 AM72 °FFog.6 mph94%29.83 "Hg2 mi
2:00 AM72 °FFog.3 mph94%29.83 "Hg2 mi
1:30 AM72 °FFog.6 mph94%29.83 "Hg2 mi
1:00 AM72 °FLight rain. Fog.6 mph94%29.86 "Hg2 mi
12:30 AM72 °FFog.3 mph94%29.86 "Hg2 mi
12:00 AM72 °FFog.3 mph94%29.86 "Hg2 mi
11:30 PM
Apr 23
72 °FFog.3 mph94%29.86 "Hg2 mi
11:00 PM72 °FFog.3 mph94%29.86 "Hg2 mi
10:30 PM73 °FFog.3 mph89%29.86 "Hg2 mi
10:00 PM73 °FFog.6 mph89%29.86 "Hg2 mi
9:30 PM73 °FFog.8 mph89%29.83 "Hg2 mi
9:00 PM73 °FFog.6 mph89%29.83 "Hg2 mi
Weather by CustomWeather, © 2014

See weather overview